Regional Weather Roundup
Issued by NWS

Home | Current Version | Previous Version | Text Only | Print | Product List | Glossary On
Versions: 1 2 3 4 5 6 7 8 9 10 11 12 13 14 15 16 17 18 19 20 21 22 23 24 25 26 27 28 29 30 31 32 33 34 35 36 37 38 39 40 41 42 43 44 45 46 47 48 49 50
000
ASUS43 KLMK 162310
RWRKY
KENTUCKY REGIONAL WEATHER ROUNDUP
NATIONAL WEATHER SERVICE LOUISVILLE KY
700 PM EDT WED APR 16 2014

NOTE "FAIR" INDICATES FEW OR NO CLOUDS BELOW 12,000 FEET
WITH NO SIGNIFICANT WEATHER AND/OR OBSTRUCTIONS TO VISIBILITY.

KYZ001>023-026-027-061>063-070>075-170000-
WESTERN AND SOUTH CENTRAL KENTUCKY

CITY           SKY/WX    TMP DP  RH WIND       PRES   REMARKS
PADUCAH        PTSUNNY   58  26  29 S7        30.13F
HENDERSON      MOSUNNY   54  27  35 SE12      30.16F
OWENSBORO      MOSUNNY   55  24  30 SE12G20   30.18F
HOPKINSVILLE   MOSUNNY   57  28  33 E9        30.16F
BOWLING GREEN  SUNNY     56  25  30 E9        30.19F
GLASGOW        SUNNY     57  25  29 E5        30.19F
$$

KYZ024-025-028>034-038-045-046-053-170000-
NORTH CENTRAL KENTUCKY

CITY           SKY/WX    TMP DP  RH WIND       PRES   REMARKS
LOUISVILLE/SDF PTSUNNY   54  23  30 SE13      30.22F
LOUISVILLE/LOU SUNNY     55  22  27 SE8       30.23F
FORT KNOX      SUNNY     52  23  32 E13       30.20F
$$

KYZ035>037-039>044-047>052-055>060-089>105-170000-
NORTHEAST KENTUCKY

CITY           SKY/WX    TMP DP  RH WIND       PRES   REMARKS
LEXINGTON      SUNNY     53  21  28 E13       30.24F
COVINGTON      PTSUNNY   50  20  30 SE15      30.25F
FRANKFORT      SUNNY     51  24  34 E10       30.23F
$$

KYZ054-064>069-076>088-106>120-170000-
SOUTHEAST KENTUCKY

CITY           SKY/WX    TMP DP  RH WIND       PRES   REMARKS
JACKSON        SUNNY     52  17  25 VRB3      30.25F
LONDON         MOSUNNY   57  21  24 NE6       30.21F
SOMERSET       SUNNY     55  21  26 E6        30.22F
MIDDLESBORO    SUNNY     59  22  23 CALM      30.22S
MONTICELLO     PTCLDY    58  25  28 E9        30.21F
$$




USA.gov is the U.S. government's official web portal to all federal, state and local government web resources and services.